Monroe, MI

2:38 AM EDT on June 28, 2017 (GMT -0400)
Custer

Weather History for KTTF - September, 2013

Change the Weather History Date:

Thursday, September 12, 2013

  Actual Average Record
Temperature  
Mean Temperature 70 °F -  
Max Temperature 80 °F 77 °F 95 °F (1931)
Min Temperature 60 °F 55 °F 40 °F (1943)
Cooling Degree Days 5    
Growing Degree Days 20 (Base 50)    
Moisture  
Dew Point 64 °F    
Average Humidity 78    
Maximum Humidity 100    
Minimum Humidity 42    
Precipitation  
Precipitation 0.00 in - - ()
Sea Level Pressure  
Sea Level Pressure 29.90 in    
Wind  
Wind Speed 5 mph (NW)    
Max Wind Speed 17 mph    
Max Gust Speed 33 mph    
Visibility 10 miles    
Events Rain    
Averages and records for this station are not official NWS values.
T = Trace of Precipitation, MM = Missing Value Source: NWS Daily Summary

Daily Weather History Graph

Daily Weather History Graph

Search for Another Location

Airport or City:

Trip Planner

Search our weather history database for the weather conditions in past years. The results will help you decide how hot, cold, wet, or windy it might be!

Date:

Astronomy

Sep. 12, 2013 Rise Set
Actual Time 7:10 AM EDT 7:48 PM EDT
Civil Twilight 6:42 AM EDT 8:16 PM EDT
Nautical Twilight 6:09 AM EDT 8:49 PM EDT
Astronomical Twilight 5:35 AM EDT 9:23 PM EDT
Moon 2:43 PM EDT (9/12) No Moon Set
Length of Visible Light 13h 33m
Length of Day
12h 37m
Waxing Crescent, 50% of the Moon is Illuminated
Sep 12
Waxing Crescent
Sep 12
First Quarter
Sep 19
Full
Sep 26
Last Quarter
Oct 4
New

Hourly Weather History & Observations

Time (EDT) Temp. Heat Index Dew Point Humidity Pressure Visibility Wind Dir Wind Speed Gust Speed Precip Events Conditions
12:15 AM 71.6 °F - 71.6 °F 100% 29.95 in 10.0 mi Calm Calm - N/A   Mostly Cloudy
12:35 AM 71.6 °F - 71.6 °F 100% 29.95 in 10.0 mi Calm Calm - N/A   Overcast
12:56 AM 71.6 °F - 71.6 °F 100% 29.94 in 10.0 mi Calm Calm - N/A   Mostly Cloudy
1:16 AM 71.6 °F - 71.6 °F 100% 29.94 in 10.0 mi Calm Calm - N/A   Scattered Clouds
1:36 AM 71.6 °F - 69.8 °F 94% 29.94 in 10.0 mi Calm Calm - N/A   Mostly Cloudy
1:56 AM 71.6 °F - 69.8 °F 94% 29.94 in 10.0 mi Calm Calm - N/A Rain Light Rain
2:16 AM 71.6 °F - 69.8 °F 94% 29.93 in 10.0 mi SW 3.5 mph - N/A   Clear
2:36 AM 71.6 °F - 69.8 °F 94% 29.93 in 10.0 mi WSW 4.6 mph - N/A   Clear
2:56 AM 71.6 °F - 69.8 °F 94% 29.93 in 10.0 mi West 5.8 mph - N/A   Clear
3:16 AM 71.6 °F - 69.8 °F 94% 29.93 in 10.0 mi West 5.8 mph - N/A   Scattered Clouds
3:36 AM 71.6 °F - 69.8 °F 94% 29.92 in 10.0 mi West 4.6 mph - N/A   Mostly Cloudy
3:56 AM 71.6 °F - 69.8 °F 94% 29.92 in 7.0 mi WSW 4.6 mph - N/A   Mostly Cloudy
4:12 AM 71.6 °F - 69.8 °F 94% 29.93 in 10.0 mi West 4.6 mph - N/A   Overcast
4:32 AM 71.6 °F - 69.8 °F 94% 29.92 in 10.0 mi WSW 4.6 mph - N/A   Overcast
4:52 AM 71.6 °F - 69.8 °F 94% 29.92 in 10.0 mi WSW 5.8 mph - N/A   Overcast
5:12 AM 71.6 °F - 69.8 °F 94% 29.92 in 10.0 mi WSW 5.8 mph - N/A   Mostly Cloudy
5:32 AM 73.4 °F - 69.8 °F 88% 29.91 in 10.0 mi WSW 6.9 mph - N/A   Scattered Clouds
5:52 AM 73.4 °F - 69.8 °F 88% 29.91 in 10.0 mi WSW 8.1 mph - N/A   Mostly Cloudy
6:12 AM 71.6 °F - 69.8 °F 94% 29.91 in 7.0 mi WSW 4.6 mph - N/A   Mostly Cloudy
6:32 AM 71.6 °F - 69.8 °F 94% 29.90 in 7.0 mi Calm Calm - N/A   Scattered Clouds
6:52 AM 71.6 °F - 69.8 °F 94% 29.90 in 10.0 mi West 3.5 mph - N/A   Scattered Clouds
7:12 AM 71.6 °F - 69.8 °F 94% 29.91 in 10.0 mi WSW 4.6 mph - N/A   Clear
7:33 AM 71.6 °F - 69.8 °F 94% 29.91 in 10.0 mi WSW 4.6 mph - N/A   Clear
7:53 AM 71.6 °F - 69.8 °F 94% 29.92 in 10.0 mi West 4.6 mph - N/A   Scattered Clouds
8:13 AM 71.6 °F - 69.8 °F 94% 29.91 in 10.0 mi WSW 4.6 mph - N/A   Clear
8:33 AM 71.6 °F - 69.8 °F 94% 29.91 in 10.0 mi SW 5.8 mph - N/A   Clear
8:53 AM 71.6 °F - 69.8 °F 94% 29.90 in 10.0 mi WSW 6.9 mph - N/A   Clear
9:13 AM 71.6 °F - 69.8 °F 94% 29.91 in 10.0 mi WSW 6.9 mph - N/A   Clear
9:33 AM 71.6 °F - 69.8 °F 94% 29.91 in 10.0 mi West 4.6 mph - N/A   Mostly Cloudy
9:53 AM 73.4 °F - 69.8 °F 88% 29.90 in 10.0 mi West 5.8 mph - N/A   Overcast
10:13 AM 73.4 °F - 71.6 °F 94% 29.91 in 7.0 mi NW 6.9 mph - N/A   Mostly Cloudy
10:33 AM 73.4 °F - 69.8 °F 88% 29.91 in 7.0 mi NW 5.8 mph 9.2 mph N/A   Overcast
10:54 AM 73.4 °F - 69.8 °F 88% 29.91 in 7.0 mi NW 8.1 mph - N/A   Overcast
11:14 AM 73.4 °F - 69.8 °F 88% 29.91 in 7.0 mi WNW 8.1 mph - N/A   Overcast
11:34 AM 73.4 °F - 69.8 °F 88% 29.91 in 7.0 mi WNW 6.9 mph - N/A   Mostly Cloudy
11:54 AM 73.4 °F - 68.0 °F 83% 29.91 in 10.0 mi NW 9.2 mph - N/A   Mostly Cloudy
12:14 PM 73.4 °F - 66.2 °F 78% 29.91 in 10.0 mi NW 9.2 mph - N/A   Clear
12:34 PM 73.4 °F - 66.2 °F 78% 29.92 in 10.0 mi NW 10.4 mph - N/A   Clear
12:54 PM 73.4 °F - 64.4 °F 73% 29.92 in 10.0 mi NW 6.9 mph - N/A   Clear
1:14 PM 73.4 °F - 66.2 °F 78% 29.92 in 10.0 mi NW 6.9 mph - N/A   Clear
1:34 PM 75.2 °F - 62.6 °F 65% 29.91 in 10.0 mi WNW 6.9 mph - N/A   Clear
1:54 PM 77.0 °F - 62.6 °F 61% 29.90 in 10.0 mi NW 8.1 mph - N/A   Clear
2:15 PM 78.8 °F - 60.8 °F 54% 29.89 in 10.0 mi NW 8.1 mph - N/A   Clear
2:35 PM 78.8 °F - 60.8 °F 54% 29.88 in 10.0 mi WNW 5.8 mph - N/A   Clear
2:55 PM 78.8 °F - 57.2 °F 47% 29.88 in 10.0 mi NNW 9.2 mph - N/A   Clear
3:15 PM 80.6 °F 81.1 °F 59.0 °F 48% 29.86 in 10.0 mi WNW 5.8 mph - N/A   Clear
3:35 PM 80.6 °F 80.8 °F 57.2 °F 45% 29.86 in 10.0 mi WNW 9.2 mph - N/A   Clear
3:55 PM 80.6 °F 80.5 °F 55.4 °F 42% 29.85 in 10.0 mi NNW 11.5 mph 18.4 mph N/A   Clear
4:15 PM 80.6 °F 80.8 °F 57.2 °F 45% 29.85 in 10.0 mi NW 9.2 mph - N/A   Clear
4:35 PM 80.6 °F 80.8 °F 57.2 °F 45% 29.85 in 10.0 mi NNW 9.2 mph - N/A   Scattered Clouds
4:55 PM 78.8 °F - 57.2 °F 47% 29.84 in 10.0 mi North 8.1 mph - N/A   Mostly Cloudy
5:16 PM 80.6 °F 80.8 °F 57.2 °F 45% 29.83 in 10.0 mi North 9.2 mph - N/A   Mostly Cloudy
5:36 PM 80.6 °F 80.8 °F 57.2 °F 45% 29.83 in 10.0 mi North 11.5 mph 16.1 mph N/A   Mostly Cloudy
5:56 PM 78.8 °F - 57.2 °F 47% 29.84 in 10.0 mi North 5.8 mph 10.4 mph N/A   Mostly Cloudy
6:16 PM 78.8 °F - 57.2 °F 47% 29.84 in 10.0 mi NNW 8.1 mph 16.1 mph N/A   Scattered Clouds
6:36 PM 75.2 °F - 59.0 °F 57% 29.84 in 10.0 mi NNW 5.8 mph - N/A   Clear
6:56 PM 73.4 °F - 60.8 °F 65% 29.85 in 10.0 mi NNW 4.6 mph - N/A   Clear
7:16 PM 71.6 °F - 55.4 °F 57% 29.87 in 10.0 mi North 17.3 mph 33.4 mph N/A   Scattered Clouds
7:36 PM 69.8 °F - 55.4 °F 60% 29.88 in 10.0 mi North 12.7 mph 19.6 mph N/A   Scattered Clouds
7:56 PM 68.0 °F - 57.2 °F 68% 29.88 in 10.0 mi North 12.7 mph 18.4 mph N/A   Mostly Cloudy
8:12 PM 66.2 °F - 57.2 °F 73% 29.88 in 10.0 mi North 15.0 mph 18.4 mph N/A   Mostly Cloudy
8:32 PM 66.2 °F - 57.2 °F 73% 29.89 in 10.0 mi NNW 8.1 mph - N/A   Mostly Cloudy
8:52 PM 66.2 °F - 57.2 °F 73% 29.90 in 10.0 mi North 12.7 mph 20.7 mph N/A   Scattered Clouds
9:12 PM 64.4 °F - 57.2 °F 77% 29.92 in 10.0 mi NNW 8.1 mph - N/A   Scattered Clouds
9:32 PM 64.4 °F - 57.2 °F 77% 29.92 in 10.0 mi North 6.9 mph - N/A   Clear
9:52 PM 64.4 °F - 57.2 °F 77% 29.93 in 10.0 mi North 6.9 mph - N/A   Scattered Clouds
10:12 PM 64.4 °F - 57.2 °F 77% 29.94 in 10.0 mi NNW 6.9 mph - N/A   Scattered Clouds
10:32 PM 62.6 °F - 55.4 °F 77% 29.94 in 10.0 mi NNW 9.2 mph - N/A   Clear
10:52 PM 62.6 °F - 55.4 °F 77% 29.94 in 10.0 mi North 9.2 mph - N/A   Clear
11:13 PM 62.6 °F - 53.6 °F 72% 29.95 in 10.0 mi North 11.5 mph 17.3 mph N/A   Clear
11:33 PM 60.8 °F - 51.8 °F 72% 29.95 in 10.0 mi NNW 6.9 mph - N/A   Clear
11:53 PM 60.8 °F - 51.8 °F 72% 29.95 in 10.0 mi North 6.9 mph - N/A   Clear